TimeHST,TemperatureF,Dew PointF,Humidity,Sea Level PressureIn,VisibilityMPH,Wind Direction,Wind SpeedMPH,Gust SpeedMPH,PrecipitationIn,Events,Conditions,WindDirDegrees,DateUTC
12:53 AM,71.1,62.1,73,30.00,10.0,NE,10.4,-,N/A,,Scattered Clouds,50,2013-12-31 10:53:00
1:53 AM,72.0,62.1,71,29.99,10.0,ENE,9.2,-,N/A,,Mostly Cloudy,60,2013-12-31 11:53:00
2:36 AM,71.6,62.6,73,29.98,10.0,ENE,10.4,-,N/A,,Mostly Cloudy,60,2013-12-31 12:36:00
2:43 AM,71.6,62.6,73,29.98,10.0,NE,11.5,-,N/A,,Mostly Cloudy,50,2013-12-31 12:43:00
2:53 AM,72.0,63.0,73,29.97,10.0,NE,9.2,-,N/A,,Overcast,50,2013-12-31 12:53:00
3:53 AM,72.0,63.0,73,29.97,10.0,ENE,9.2,-,N/A,,Overcast,60,2013-12-31 13:53:00
4:20 AM,68.0,62.6,83,29.97,10.0,WNW,5.8,-,N/A,,Mostly Cloudy,290,2013-12-31 14:20:00
4:53 AM,66.9,63.0,87,29.96,10.0,NNW,6.9,-,N/A,,Mostly Cloudy,340,2013-12-31 14:53:00
5:20 AM,66.2,62.6,88,29.97,10.0,Variable,3.5,-,N/A,,Mostly Cloudy,0,2013-12-31 15:20:00
5:53 AM,66.9,63.0,87,29.97,10.0,WNW,5.8,-,N/A,,Mostly Cloudy,300,2013-12-31 15:53:00
6:00 AM,66.2,62.6,88,29.98,10.0,WNW,3.5,-,N/A,,Mostly Cloudy,290,2013-12-31 16:00:00
6:53 AM,66.9,63.0,87,29.99,10.0,NW,5.8,-,N/A,,Overcast,310,2013-12-31 16:53:00
7:00 AM,66.2,62.6,88,29.99,10.0,WNW,5.8,-,N/A,,Mostly Cloudy,300,2013-12-31 17:00:00
7:55 AM,64.4,62.6,94,30.01,10.0,WNW,6.9,-,N/A,,Scattered Clouds,290,2013-12-31 17:55:00
8:53 AM,68.0,64.0,87,30.03,10.0,West,5.8,-,N/A,,Scattered Clouds,280,2013-12-31 18:53:00
9:53 AM,75.0,64.0,69,30.04,10.0,North,4.6,-,N/A,,Scattered Clouds,10,2013-12-31 19:53:00
10:49 AM,75.2,64.4,69,30.04,10.0,ENE,9.2,-,N/A,,Mostly Cloudy,70,2013-12-31 20:49:00
10:53 AM,75.9,64.9,69,30.03,10.0,ENE,9.2,-,N/A,,Overcast,60,2013-12-31 20:53:00
11:53 AM,77.0,64.0,64,30.01,10.0,East,8.1,-,N/A,,Overcast,80,2013-12-31 21:53:00
12:53 PM,78.1,64.9,64,29.98,10.0,East,9.2,-,N/A,,Partly Cloudy,90,2013-12-31 22:53:00
1:53 PM,78.1,64.9,64,29.95,10.0,East,6.9,-,N/A,,Clear,80,2013-12-31 23:53:00
2:53 PM,78.1,64.9,64,29.94,10.0,East,6.9,-,N/A,,Scattered Clouds,100,2014-01-01 00:53:00
3:53 PM,75.0,64.9,71,29.94,10.0,East,6.9,-,N/A,,Scattered Clouds,100,2014-01-01 01:53:00
4:53 PM,75.9,64.9,69,29.94,10.0,East,5.8,-,N/A,,Partly Cloudy,80,2014-01-01 02:53:00
5:19 PM,75.2,64.4,69,29.95,10.0,East,5.8,-,N/A,,Mostly Cloudy,90,2014-01-01 03:19:00
5:31 PM,73.4,64.4,73,29.95,10.0,East,5.8,-,N/A,,Mostly Cloudy,100,2014-01-01 03:31:00
5:53 PM,73.0,64.9,76,29.95,10.0,East,3.5,-,N/A,,Partly Cloudy,100,2014-01-01 03:53:00
6:15 PM,73.4,64.4,73,29.95,10.0,East,5.8,-,N/A,,Mostly Cloudy,80,2014-01-01 04:15:00
6:53 PM,73.9,66.0,76,29.96,10.0,East,6.9,-,N/A,,Overcast,80,2014-01-01 04:53:00
7:33 PM,73.4,64.4,73,29.98,10.0,ENE,6.9,-,N/A,,Overcast,70,2014-01-01 05:33:00
7:53 PM,73.9,64.9,73,29.98,10.0,ENE,6.9,-,N/A,,Overcast,60,2014-01-01 05:53:00
8:02 PM,73.4,64.4,73,29.98,10.0,ENE,5.8,-,N/A,,Overcast,70,2014-01-01 06:02:00
8:53 PM,73.0,64.9,76,29.99,10.0,East,6.9,-,N/A,,Mostly Cloudy,80,2014-01-01 06:53:00
9:53 PM,69.1,64.9,87,29.99,10.0,Variable,4.6,-,N/A,,Mostly Cloudy,0,2014-01-01 07:53:00
10:00 PM,69.8,64.4,83,30.00,10.0,Calm,Calm,-,N/A,,Scattered Clouds,0,2014-01-01 08:00:00
10:53 PM,68.0,64.9,90,29.99,10.0,West,6.9,-,N/A,,Clear,280,2014-01-01 08:53:00
11:24 PM,66.2,64.4,94,29.99,10.0,WSW,5.8,-,N/A,,Mostly Cloudy,250,2014-01-01 09:24:00
11:41 PM,66.2,64.4,94,29.99,5.0,West,5.8,-,N/A,,Overcast,260,2014-01-01 09:41:00
11:53 PM,66.9,64.0,90,29.99,7.0,West,6.9,-,N/A,,Scattered Clouds,270,2014-01-01 09:53:00